Wind_Speed
58 58 59 57 54 50 48 47 49 50 48 51 55 56 57 55 55 54 54 54 55 55 56 55 55 55 55 54 55 56 57 57 58 56 59 61 63 65 66 68 70 70 70
60 59 56 54 53 51 51 53 53 51 51 53 55 58 60 59 59 58 57 55 55 55 56 56 55 58 59 58 58 58 59 60 59 60 62 63 64 67 68 70 72 72 69
58 57 56 56 57 57 58 55 52 53 56 56 59 60 58 56 56 55 55 53 52 53 55 55 57 58 59 59 59 60 60 59 59 62 64 66 67 67 69 69 72 70 71
58 58 57 57 57 58 58 58 56 58 58 57 59 59 59 57 55 54 54 54 54 54 55 57 57 57 57 59 58 58 59 57 61 63 64 65 67 68 69 71 68 69 73
55 54 54 56 57 58 57 57 57 55 54 53 55 58 58 57 56 55 55 56 56 57 57 58 58 57 56 57 59 59 59 61 61 62 65 69 69 70 72 76 77 73 72
60 59 57 56 55 54 55 55 54 54 52 52 53 54 54 54 53 53 53 53 53 52 53 53 52 53 54 56 58 62 60 61 64 65 69 74 76 73 77 73 79 78 75
62 61 59 57 56 55 53 53 54 54 53 52 52 52 53 54 54 53 53 53 52 51 52 53 54 55 56 58 59 60 62 63 65 68 71 76 75 78 77 77 74 76 71
65 65 64 62 60 59 57 56 56 56 55 54 53 51 50 52 53 54 55 55 55 56 57 58 56 56 59 62 63 62 63 65 66 67 71 76 79 80 78 74 71 66 62
70 69 66 67 67 65 65 63 61 61 61 62 60 58 56 57 58 60 60 60 61 61 62 61 62 62 64 65 63 63 64 67 68 74 77 78 80 78 75 70 62 60 57
65 66 71 70 68 64 63 62 62 66 71 70 66 65 63 62 61 60 61 61 61 62 64 64 65 64 65 65 67 70 72 72 74 76 79 81 75 71 67 60 57 58 59
67 63 61 65 67 66 66 68 65 64 66 71 71 69 66 62 59 58 55 51 51 50 50 53 57 60 61 63 65 69 72 75 78 81 80 70 66 62 59 56 56 59 62
70 72 68 60 60 63 63 64 62 61 65 65 64 62 56 54 49 47 49 51 52 56 58 59 60 62 63 67 71 73 75 78 81 74 66 61 60 53 54 55 57 62 64
76 78 73 67 65 61 58 59 55 55 64 62 58 56 56 57 56 53 52 56 58 61 61 63 66 66 66 67 67 73 79 78 69 60 58 54 51 53 55 58 60 60 63
69 68 65 66 71 69 61 62 61 57 59 57 56 57 54 53 57 61 62 60 61 64 66 68 69 69 68 70 76 76 69 63 58 51 50 53 54 57 59 58 58 60 63
65 63 59 59 59 60 61 62 54 48 47 51 55 58 59 61 64 67 63 60 58 62 66 67 66 63 66 66 69 63 55 52 52 51 52 54 55 56 57 59 62 64 67
67 65 63 63 58 59 55 48 45 47 49 52 53 54 55 59 61 62 61 61 64 64 64 64 63 63 65 62 55 56 53 53 55 52 53 56 57 58 60 62 65 68 70
68 69 68 61 64 62 61 52 49 53 56 58 64 64 58 61 63 59 57 60 64 58 55 57 59 57 56 54 52 52 52 54 56 54 55 56 57 59 62 65 69 72 75
82 74 64 61 66 68 67 67 66 59 58 59 64 66 61 62 63 61 59 55 54 55 55 55 53 53 55 56 56 56 55 54 53 53 54 57 60 63 66 70 72 76 79
69 70 73 67 76 77 71 68 56 54 52 52 53 58 55 53 54 55 57 58 57 57 56 55 54 52 50 52 55 54 52 53 54 56 58 61 65 68 71 75 78 80 82
47 50 50 52 54 52 49 44 46 48 50 51 54 55 55 57 55 55 56 52 47 47 49 50 52 53 54 53 53 54 55 57 58 60 64 68 71 75 78 81 82 85 88
48 45 47 47 40 43 43 49 47 50 54 54 56 54 47 44 44 43 44 46 48 53 56 56 56 53 52 52 53 55 57 61 64 68 71 75 78 80 82 85 88 90 89
47 47 39 40 43 48 44 44 47 48 46 44 41 39 38 40 44 48 50 51 52 53 52 52 53 53 55 56 59 61 65 69 72 75 77 80 82 85 88 89 89 87 83
35 36 37 37 37 39 38 39 39 38 36 36 39 43 45 46 47 47 46 46 48 51 53 54 55 57 59 62 66 69 73 76 79 81 84 88 92 94 94 89 85 80 76
32 32 35 37 35 33 32 33 35 39 45 46 43 41 42 42 43 44 46 49 51 52 54 58 61 64 68 71 74 77 80 84 88 91 95 97 97 94 87 81 78 75 71
33 34 34 32 32 34 37 39 40 41 42 42 43 43 43 45 47 49 51 53 56 58 62 65 69 73 76 78 82 86 89 93 97 100 99 95 88 81 75 70 65 61 57
32 31 33 36 37 38 39 42 44 44 44 44 45 45 47 49 51 54 58 61 64 67 71 74 77 80 84 87 91 95 99 99 96 89 80 72 66 60 53 47 44 43 43
Wind_Direction
272 273 276 279 280 279 280 284 286 287 283 281 280 278 275 274 275 276 277 277 276 276 278 279 277 279 280 279 279 280 281 283 284 285 285 286 287 290 292 294 295 298 300
269 272 275 277 280 282 284 285 284 280 278 277 277 277 279 281 281 281 281 279 277 276 276 277 278 278 279 279 280 280 279 279 280 282 285 287 288 290 293 295 297 298 299
277 278 279 281 282 283 282 280 278 276 275 275 276 279 281 283 283 281 279 276 276 276 276 277 278 279 279 279 279 279 279 281 283 286 286 288 290 293 295 297 298 299 299
281 281 281 281 281 281 280 279 275 275 275 275 275 276 278 281 282 281 280 279 278 278 278 279 280 279 280 280 280 280 280 283 286 284 286 288 292 293 296 296 299 300 301
285 285 284 282 281 281 281 280 278 277 277 277 275 276 277 277 277 277 278 279 279 278 278 277 277 279 279 279 279 280 280 281 283 286 288 291 289 291 296 298 296 295 297
284 285 285 285 284 283 283 281 278 278 280 279 278 276 275 278 278 278 278 277 277 278 279 280 279 279 279 281 283 282 285 286 287 290 293 292 290 293 291 296 294 289 292
282 281 280 280 281 282 281 281 281 280 279 279 280 280 277 275 276 279 279 279 278 278 277 279 281 283 284 287 288 285 285 287 288 288 287 287 290 288 288 287 289 290 294
278 279 279 280 280 279 279 279 279 279 280 281 280 278 277 275 275 276 278 280 281 280 281 285 287 287 288 287 285 286 286 286 286 287 283 283 284 286 285 287 290 291 290
275 272 273 274 275 277 279 279 279 279 279 278 277 276 276 275 276 278 278 278 279 279 281 283 284 284 285 285 285 284 282 282 283 282 280 283 284 285 288 289 287 287 287
276 273 270 270 275 277 275 275 277 280 280 278 276 276 276 276 277 278 280 278 279 280 280 280 281 282 282 283 284 283 283 281 282 285 287 285 286 284 284 282 282 283 287
276 278 277 276 277 277 284 289 286 285 285 278 275 274 275 277 278 278 279 282 284 286 290 291 290 287 284 283 283 282 282 283 283 285 285 284 281 279 278 279 281 286 289
279 281 285 287 284 286 290 286 283 281 278 274 273 274 271 271 270 274 280 283 282 287 288 284 285 284 282 280 280 281 281 281 282 282 280 276 276 276 277 281 285 288 293
279 279 281 282 278 281 282 285 283 287 278 273 269 267 267 267 271 275 277 276 279 281 282 282 280 279 280 281 281 280 282 282 277 274 272 271 271 274 279 282 287 293 297
277 277 277 276 277 277 282 284 285 282 278 276 276 274 275 282 278 278 277 278 281 280 281 281 281 279 280 281 282 277 275 271 267 266 267 270 274 278 282 289 295 297 300
276 278 278 280 275 276 274 272 269 268 276 280 278 280 280 280 281 280 281 281 281 281 283 285 285 281 283 282 284 269 265 264 267 271 272 273 279 285 290 295 298 299 301
275 277 276 278 267 267 267 273 280 283 286 287 284 281 281 280 279 278 275 277 278 279 280 282 288 288 282 272 266 269 271 270 271 279 284 287 291 294 296 297 299 300 302
270 271 268 271 271 270 271 267 269 277 282 290 284 281 279 276 279 279 280 281 278 279 285 289 287 278 272 272 274 275 279 283 287 291 292 293 295 296 297 297 298 300 301
268 269 267 266 267 267 274 272 282 290 288 280 282 290 284 279 279 283 285 282 282 282 280 277 273 272 274 279 284 287 288 289 290 291 293 294 295 295 295 296 297 299 299
278 279 279 280 278 280 285 286 285 289 288 280 277 283 278 278 278 276 276 278 279 279 276 276 277 279 283 287 289 288 289 291 291 291 291 292 293 295 296 297 297 297 298
279 276 274 273 273 273 276 275 273 273 274 276 278 278 278 278 277 280 282 277 274 278 285 286 285 286 287 286 287 288 289 288 288 288 290 292 294 295 296 297 297 298 300
277 270 266 267 272 277 271 268 274 275 275 275 277 278 276 277 278 277 277 284 290 295 293 291 288 286 288 288 287 287 287 287 288 290 292 293 294 296 297 297 298 299 300
274 268 275 277 280 273 274 277 278 275 271 270 271 272 277 282 289 293 295 292 292 291 288 287 286 285 285 285 285 286 288 290 292 293 294 295 295 296 298 300 300 298 297
273 274 283 278 276 274 272 271 270 270 269 270 277 282 288 290 290 289 288 287 286 285 285 285 285 285 285 286 289 290 292 293 294 294 295 296 297 298 299 299 297 295 295
265 270 272 271 268 267 268 271 273 273 277 283 284 285 286 285 285 285 285 285 285 285 285 286 286 287 289 290 291 293 294 294 295 297 298 298 298 297 296 294 293 292 292
263 262 261 263 270 275 275 275 279 284 284 286 286 286 286 285 284 285 286 287 288 290 290 290 290 290 290 291 292 293 295 296 297 297 296 296 294 292 291 291 292 290 289
259 260 268 273 272 275 280 282 281 282 283 283 284 284 285 287 288 289 289 289 290 292 292 292 292 293 292 293 294 296 296 296 295 293 293 293 293 291 290 290 290 291 292
Height
5757 5755 5753 5753 5754 5753 5752 5749 5746 5742 5738 5734 5730 5727 5725 5723 5720 5718 5717 5714 5711 5708 5705 5703 5700 5695 5693 5689 5687 5684 5680 5676 5673 5670 5666 5661 5657 5653 5649 5644 5639 5633 5628
5740 5741 5742 5741 5739 5737 5736 5733 5731 5727 5723 5719 5715 5711 5709 5707 5706 5704 5702 5700 5697 5694 5691 5689 5686 5683 5679 5675 5672 5670 5665 5663 5660 5656 5651 5647 5642 5638 5634 5629 5623 5616 5611
5728 5728 5726 5725 5723 5722 5719 5716 5714 5711 5707 5704 5700 5697 5695 5693 5691 5688 5687 5684 5681 5679 5676 5674 5673 5669 5666 5661 5659 5655 5652 5648 5644 5640 5635 5631 5627 5623 5619 5613 5607 5601 5595
5713 5713 5712 5709 5707 5705 5703 5701 5697 5694 5692 5689 5685 5683 5680 5678 5676 5674 5672 5669 5666 5664 5662 5659 5657 5654 5650 5646 5643 5639 5636 5632 5629 5624 5620 5616 5612 5607 5602 5597 5591 5584 5578
5694 5694 5694 5693 5691 5688 5686 5683 5679 5677 5674 5672 5670 5668 5664 5662 5660 5657 5655 5654 5651 5649 5646 5644 5641 5638 5635 5631 5628 5624 5619 5616 5613 5609 5605 5600 5594 5590 5584 5580 5574 5567 5561
5676 5676 5674 5673 5672 5671 5669 5667 5665 5661 5658 5656 5655 5652 5650 5647 5644 5641 5638 5636 5634 5633 5630 5628 5627 5624 5620 5616 5612 5608 5604 5600 5595 5590 5585 5579 5575 5571 5567 5562 5556 5550 5546
5659 5658 5657 5656 5654 5652 5651 5650 5649 5647 5644 5642 5640 5638 5636 5632 5629 5627 5625 5622 5619 5617 5615 5613 5611 5609 5605 5601 5598 5594 5589 5584 5580 5575 5569 5563 5559 5553 5549 5542 5537 5532 5526
5641 5640 5638 5637 5637 5636 5634 5633 5632 5630 5629 5627 5625 5622 5620 5617 5614 5612 5610 5607 5604 5601 5599 5597 5595 5592 5588 5585 5582 5577 5572 5567 5562 5557 5551 5544 5539 5534 5527 5523 5518 5514 5509
5623 5623 5621 5620 5618 5618 5617 5616 5614 5613 5611 5609 5607 5605 5603 5600 5599 5597 5594 5591 5589 5586 5583 5581 5578 5576 5572 5568 5564 5560 5554 5549 5543 5537 5530 5526 5520 5515 5510 5505 5499 5494 5490
5602 5602 5601 5599 5598 5597 5597 5596 5595 5594 5594 5592 5589 5587 5584 5582 5581 5579 5577 5574 5572 5569 5566 5563 5562 5559 5556 5552 5548 5543 5537 5530 5524 5519 5514 5509 5502 5496 5492 5486 5482 5476 5472
5582 5582 5582 5580 5579 5576 5575 5573 5573 5572 5573 5572 5570 5568 5566 5564 5562 5560 5559 5555 5553 5551 5549 5546 5543 5540 5537 5533 5529 5524 5518 5511 5507 5502 5496 5490 5482 5478 5473 5468 5464 5460 5455
5565 5564 5563 5562 5560 5559 5557 5555 5554 5552 5552 5550 5549 5548 5546 5544 5542 5541 5541 5539 5537 5533 5531 5528 5524 5521 5518 5514 5510 5503 5497 5492 5487 5483 5477 5471 5466 5462 5457 5453 5448 5444 5437
5546 5545 5544 5544 5542 5540 5538 5539 5538 5535 5533 5531 5528 5527 5527 5525 5524 5522 5522 5521 5518 5515 5512 5508 5504 5501 5497 5493 5489 5483 5477 5472 5468 5464 5459 5455 5450 5446 5442 5438 5432 5426 5420
5527 5526 5526 5524 5522 5520 5520 5519 5519 5518 5516 5513 5512 5509 5508 5509 5508 5507 5504 5501 5499 5495 5492 5488 5485 5481 5479 5474 5469 5462 5456 5452 5449 5446 5443 5440 5436 5433 5428 5422 5416 5411 5405
5507 5506 5505 5505 5503 5502 5501 5501 5499 5498 5498 5497 5496 5495 5493 5492 5490 5488 5485 5482 5479 5476 5471 5467 5464 5462 5459 5454 5450 5444 5439 5436 5433 5432 5430 5426 5421 5416 5411 5406 5400 5394 5387
5488 5488 5488 5486 5484 5483 5483 5482 5481 5480 5479 5479 5478 5476 5474 5473 5470 5468 5465 5462 5460 5456 5453 5450 5446 5444 5441 5436 5432 5430 5427 5425 5421 5415 5412 5408 5403 5398 5393 5387 5382 5376 5368
5470 5470 5469 5468 5466 5465 5465 5464 5463 5461 5460 5460 5460 5459 5457 5455 5452 5449 5446 5445 5442 5439 5436 5433 5431 5429 5426 5423 5420 5417 5412 5409 5405 5399 5395 5391 5386 5381 5376 5370 5364 5357 5351
5447 5448 5448 5448 5447 5446 5445 5444 5442 5442 5441 5440 5437 5435 5435 5434 5431 5428 5427 5426 5424 5421 5420 5418 5415 5412 5410 5407 5403 5399 5395 5391 5387 5383 5379 5375 5370 5365 5359 5353 5346 5339 5332
5426 5426 5426 5426 5426 5425 5425 5425 5424 5422 5421 5420 5418 5416 5417 5414 5412 5411 5410 5409 5407 5405 5402 5399 5397 5394 5391 5388 5386 5382 5378 5375 5371 5368 5364 5359 5353 5347 5340 5333 5326 5319 5311
5408 5408 5408 5408 5407 5407 5407 5407 5406 5406 5405 5405 5403 5401 5400 5399 5397 5394 5393 5392 5390 5389 5387 5384 5382 5379 5375 5372 5369 5366 5362 5359 5354 5350 5345 5339 5333 5326 5319 5312 5305 5297 5288
5394 5394 5393 5393 5393 5392 5391 5392 5390 5390 5389 5388 5387 5386 5384 5383 5381 5381 5379 5377 5375 5374 5372 5369 5367 5363 5360 5356 5353 5349 5346 5341 5336 5330 5325 5318 5311 5304 5297 5289 5281 5272 5264
5378 5378 5377 5377 5378 5377 5377 5377 5376 5375 5374 5374 5373 5372 5371 5370 5369 5367 5364 5362 5359 5358 5355 5352 5349 5346 5343 5339 5336 5331 5326 5321 5315 5309 5301 5295 5287 5280 5273 5265 5256 5247 5239
5364 5365 5365 5365 5365 5365 5364 5364 5364 5364 5363 5362 5361 5359 5356 5354 5352 5350 5348 5347 5344 5342 5339 5336 5332 5329 5325 5321 5316 5311 5305 5298 5292 5284 5277 5269 5262 5254 5246 5238 5230 5223 5217
5353 5354 5355 5355 5355 5355 5355 5355 5354 5354 5353 5350 5346 5344 5342 5340 5338 5336 5334 5332 5329 5325 5322 5318 5314 5310 5304 5299 5293 5287 5281 5274 5266 5258 5250 5242 5233 5225 5218 5211 5205 5200 5194
5344 5344 5345 5345 5346 5346 5345 5344 5342 5339 5337 5334 5332 5330 5329 5327 5324 5322 5319 5315 5312 5307 5303 5298 5294 5289 5283 5276 5269 5263 5256 5248 5239 5230 5221 5212 5204 5197 5191 5187 5182 5178 5173
5335 5336 5336 5335 5334 5333 5332 5330 5328 5326 5323 5321 5319 5317 5315 5313 5309 5306 5302 5298 5293 5288 5283 5277 5271 5265 5258 5251 5244 5236 5227 5217 5208 5199 5192 5185 5179 5174 5170 5166 5163 5161 5158